WetterOnline ( http://www.wetteronline.de )

Wetter aktuell Neroth

Aktuelles Wetter: Nürburg-Barweiler (488m)

6-stündlich | Neueste Meldungen
Ortszeit Temperatur Wetter
Fr, 23.02. 7:00 -6.0° C bewölkt
Fr, 23.02. 1:00 -4.4° C bedeckt
Do, 22.02. 19:00 -2.0° C bedeckt
Do, 22.02. 13:00 -0.5° C leicht bewölkt
Do, 22.02. 7:00 -5.2° C bedeckt
Do, 22.02. 1:00 -3.5° C bedeckt
Mi, 21.02. 19:00 -1.0° C bedeckt
Mi, 21.02. 13:00 1.0° C fast wolkenlos
Ortszeit Temperatur Wetter
Fr, 23.02. 8:30 -5.7° C wolkenlos
Fr, 23.02. 8:20 -5.7° C wolkenlos
Fr, 23.02. 8:10 -5.8° C wolkenlos
Fr, 23.02. 8:00 -5.9° C leicht bewölkt
Fr, 23.02. 7:50 -5.9° C leicht bewölkt
Fr, 23.02. 7:40 -5.7° C leicht bewölkt
Fr, 23.02. 7:30 -5.9° C bedeckt
Fr, 23.02. 7:00 -6.0° C bewölkt
Fr, 23.02. 6:30 -5.9° C bedeckt
Fr, 23.02. 6:00 -5.5° C bedeckt
Fr, 23.02. 5:30 -5.3° C bedeckt
Ortszeit Relative Feuchte Sichtweite
Fr, 23.02. 7:00 67% 23 km
Fr, 23.02. 1:00 66% 18 km
Do, 22.02. 19:00 60% 15 km
Do, 22.02. 13:00 52% 16 km
Do, 22.02. 7:00 81% 7 km
Do, 22.02. 1:00 74% 7 km
Mi, 21.02. 19:00 70% 6 km
Mi, 21.02. 13:00 60% 6 km
Ortszeit Relative Feuchte Sichtweite
Fr, 23.02. 8:30 60% 21 km
Fr, 23.02. 8:20 60% -
Fr, 23.02. 8:10 61% -
Fr, 23.02. 8:00 62% 25 km
Fr, 23.02. 7:50 62% -
Fr, 23.02. 7:40 61% -
Fr, 23.02. 7:30 64% 23 km
Fr, 23.02. 7:00 67% 23 km
Fr, 23.02. 6:30 67% 24 km
Fr, 23.02. 6:00 65% 22 km
Fr, 23.02. 5:30 65% 23 km
Ortszeit Niederschlagsmenge Niederschlagsart
Fr, 23.02. 7:00 0.0 l/m2 in 12 Std. -
Fr, 23.02. 1:00 0.0 l/m2 in 6 Std. -
Do, 22.02. 19:00 0.0 l/m2 in 12 Std. -
Do, 22.02. 13:00 0.0 l/m2 in 6 Std. -
Do, 22.02. 7:00 0.0 l/m2 in 12 Std. -
Do, 22.02. 1:00 0.0 l/m2 in 6 Std. -
Mi, 21.02. 19:00 0.0 l/m2 in 12 Std. -
Mi, 21.02. 13:00 0.0 l/m2 in 6 Std. -
Ortszeit Niederschlagsmenge Niederschlagsart
Fr, 23.02. 8:30 0.0 l/m2 in 1 Std. -
Fr, 23.02. 8:20 keine Meldung -
Fr, 23.02. 8:10 keine Meldung -
Fr, 23.02. 8:00 0.0 l/m2 in 1 Std. -
Fr, 23.02. 7:50 keine Meldung -
Fr, 23.02. 7:40 keine Meldung -
Fr, 23.02. 7:30 0.0 l/m2 in 1 Std. -
Fr, 23.02. 7:00 0.0 l/m2 in 1 Std. -
Fr, 23.02. 6:30 0.0 l/m2 in 1 Std. -
Fr, 23.02. 6:00 0.0 l/m2 in 1 Std. -
Fr, 23.02. 5:30 0.0 l/m2 in 1 Std. -
Ortszeit Stärke Spitze Richtung
km/h Bft. km/h Grad Sektor
Fr, 23.02. 7:00 18 3 40 60° NO
Fr, 23.02. 1:00 14 3 36 80° O
Do, 22.02. 19:00 17 3 52 50° NO
Do, 22.02. 13:00 30 5 44 60° NO
Do, 22.02. 7:00 14 3 25 50° NO
Do, 22.02. 1:00 17 3 26 70° O
Mi, 21.02. 19:00 7 2 32 10° N
Mi, 21.02. 13:00 14 3 22 20° N
Ortszeit Stärke Spitze Richtung
km/h Bft. km/h Grad Sektor
Fr, 23.02. 8:30 26 4 39 60° NO
Fr, 23.02. 8:20 26 4 - 60° NO
Fr, 23.02. 8:10 26 4 - 50° NO
Fr, 23.02. 8:00 25 4 43 50° NO
Fr, 23.02. 7:50 25 4 - 50° NO
Fr, 23.02. 7:40 25 4 - 60° NO
Fr, 23.02. 7:30 22 4 29 60° NO
Fr, 23.02. 7:00 18 3 29 60° NO
Fr, 23.02. 6:30 14 3 25 50° NO
Fr, 23.02. 6:00 17 3 30 60° NO
Fr, 23.02. 5:30 20 4 30 60° NO
Ortszeit Untergrenze Bedeckung Gattung
total tief tief mittel hoch
Fr, 23.02. 7:00 1020 m 8/8 4/8 - - -
Fr, 23.02. 1:00 - 8/8 - - - -
Do, 22.02. 19:00 - 8/8 - - - -
Do, 22.02. 13:00 1110 m 2/8 1/8 - - -
Do, 22.02. 7:00 4500 m 8/8 - - - -
Do, 22.02. 1:00 - 8/8 - - - -
Mi, 21.02. 19:00 3900 m 8/8 8/8 - - -
Mi, 21.02. 13:00 780 m 1/8 - - - -
Ortszeit Bedeckungsgrad in Achtel und Wolkenuntergrenze
Fr, 23.02. 8:30 keine Wolken
Fr, 23.02. 8:20 keine Wolken
Fr, 23.02. 8:10 keine Wolken
Fr, 23.02. 8:00 1(1230m)
Fr, 23.02. 7:50 1(1230m) 2(1500m)
Fr, 23.02. 7:40 1(1200m) 3(1500m)
Fr, 23.02. 7:30 9 9 9
Fr, 23.02. 7:00 2(1020m) 3(1380m) 4(1500m)
Fr, 23.02. 6:30 9 9 9
Fr, 23.02. 6:00 9 9 9
Fr, 23.02. 5:30 9 9 9
Ortszeit Luftdruck NN (hPa) Tendenz (hPa in 3 Std.)
Fr, 23.02. 7:00 1022 + 0,3
Fr, 23.02. 1:00 1022 - 0,5
Do, 22.02. 19:00 1021 + 0,5
Do, 22.02. 13:00 1022 - 0,7
Do, 22.02. 7:00 1023 - 0,1
Do, 22.02. 1:00 1024 - 0,1
Mi, 21.02. 19:00 1023 + 0,3
Mi, 21.02. 13:00 1024 - 0,7
Ortszeit Luftdruck NN (hPa) Tendenz (hPa in 3 Std.)
Fr, 23.02. 8:30 1022 + 0,3
Fr, 23.02. 8:20 1022 keine Meldung
Fr, 23.02. 8:10 1022 keine Meldung
Fr, 23.02. 8:00 1022 + 0,3
Fr, 23.02. 7:50 1022 keine Meldung
Fr, 23.02. 7:40 1022 keine Meldung
Fr, 23.02. 7:30 1022 + 0,3
Fr, 23.02. 7:00 1022 + 0,3
Fr, 23.02. 6:30 1022 + 0,1
Fr, 23.02. 6:00 1021 - 0,4
Fr, 23.02. 5:30 1021 - 0,6
Ortszeit Schneehöhe (cm)
Fr, 23.02. 7:00 0
Fr, 23.02. 1:00 0
Do, 22.02. 19:00 0
Do, 22.02. 13:00 0
Do, 22.02. 7:00 0
Do, 22.02. 1:00 0
Mi, 21.02. 19:00 0
Mi, 21.02. 13:00 0
Ortszeit Schneehöhe (cm)
Fr, 23.02. 8:30 0
Fr, 23.02. 8:20 0
Fr, 23.02. 8:10 0
Fr, 23.02. 8:00 0
Fr, 23.02. 7:50 0
Fr, 23.02. 7:40 0
Fr, 23.02. 7:30 0
Fr, 23.02. 7:00 0
Fr, 23.02. 6:30 0
Fr, 23.02. 6:00 0
Fr, 23.02. 5:30 0
Link zu dieser Seite / Seite empfehlen

Das Wetter in ...